TimeMST,TemperatureF,Dew PointF,Humidity,Sea Level PressureIn,VisibilityMPH,Wind Direction,Wind SpeedMPH,Gust SpeedMPH,PrecipitationIn,Events,Conditions,WindDirDegrees,DateUTC
12:15 AM,30.2,30.2,100,-9999,3.0,SW,10.4,16.1,N/A,Snow,Light Snow,220,2012-11-19 07:15:00
12:35 AM,30.2,30.2,100,-9999,0.5,South,9.2,-,N/A,Snow,Snow,190,2012-11-19 07:35:00
12:55 AM,30.2,30.2,100,-9999,0.5,South,5.8,-,N/A,Snow,Light Snow,190,2012-11-19 07:55:00
1:15 AM,30.2,30.2,100,-9999,0.5,SSW,5.8,-,N/A,Snow,Light Snow,210,2012-11-19 08:15:00
1:35 AM,30.2,30.2,100,30.07,0.2,SW,11.5,18.4,N/A,,Overcast,230,2012-11-19 08:35:00
2:15 AM,30.2,30.2,100,30.08,0.2,WSW,16.1,20.7,N/A,Snow,Heavy Snow,240,2012-11-19 09:15:00
2:35 AM,30.2,30.2,100,30.09,0.2,WSW,15.0,20.7,N/A,Snow,Heavy Snow,240,2012-11-19 09:35:00
3:15 AM,30.2,30.2,100,30.08,0.2,WSW,13.8,-,N/A,Fog,Light Freezing Fog,240,2012-11-19 10:15:00
3:35 AM,30.2,30.2,100,30.09,0.2,SW,11.5,18.4,N/A,Snow,Light Snow,230,2012-11-19 10:35:00
4:15 AM,30.2,30.2,100,30.09,3.0,WSW,8.1,-,N/A,,Overcast,240,2012-11-19 11:15:00
4:35 AM,30.2,30.2,100,30.10,7.0,WSW,4.6,17.3,N/A,,Overcast,250,2012-11-19 11:35:00
4:55 AM,30.2,30.2,100,30.09,7.0,SW,3.5,-,N/A,,Overcast,220,2012-11-19 11:55:00
5:15 AM,30.2,28.4,93,30.10,10.0,WSW,3.5,-,N/A,,Overcast,240,2012-11-19 12:15:00
5:35 AM,30.2,28.4,93,30.11,10.0,Calm,Calm,-,N/A,,Overcast,0,2012-11-19 12:35:00
5:55 AM,30.2,28.4,93,30.11,10.0,WSW,3.5,-,N/A,,Overcast,240,2012-11-19 12:55:00
6:15 AM,30.2,28.4,93,30.11,10.0,SW,5.8,-,N/A,,Overcast,220,2012-11-19 13:15:00
6:35 AM,30.2,28.4,93,30.12,10.0,WSW,9.2,-,N/A,,Overcast,240,2012-11-19 13:35:00
6:55 AM,30.2,28.4,93,30.13,10.0,WSW,8.1,-,N/A,,Overcast,240,2012-11-19 13:55:00
7:15 AM,28.4,28.4,100,30.14,10.0,SW,9.2,-,N/A,,Overcast,230,2012-11-19 14:15:00
7:35 AM,28.4,28.4,100,30.15,1.5,SW,8.1,-,N/A,,Overcast,230,2012-11-19 14:35:00
7:55 AM,28.4,28.4,100,30.15,2.5,SW,9.2,-,N/A,,Overcast,230,2012-11-19 14:55:00
8:15 AM,28.4,28.4,100,30.16,0.2,WSW,10.4,-,N/A,Fog,Light Freezing Fog,240,2012-11-19 15:15:00
8:35 AM,30.2,28.4,93,30.17,0.8,SW,9.2,-,N/A,,Overcast,230,2012-11-19 15:35:00
8:55 AM,28.4,28.4,100,30.16,0.2,SW,8.1,-,N/A,Fog,Light Freezing Fog,230,2012-11-19 15:55:00
9:35 AM,30.2,30.2,100,30.17,0.2,SW,9.2,-,N/A,Fog,Light Freezing Fog,230,2012-11-19 16:35:00
9:55 AM,30.2,30.2,100,30.18,0.2,SW,10.4,-,N/A,Fog,Light Freezing Fog,220,2012-11-19 16:55:00
10:15 AM,30.2,30.2,100,30.19,0.2,SW,9.2,-,N/A,Snow,Light Snow,230,2012-11-19 17:15:00
10:35 AM,32.0,32.0,100,30.18,0.2,WSW,15.0,-,N/A,Fog,Light Freezing Fog,240,2012-11-19 17:35:00
10:55 AM,32.0,32.0,100,30.19,0.2,WSW,12.7,18.4,N/A,Fog,Light Freezing Fog,240,2012-11-19 17:55:00
11:15 AM,32.0,32.0,100,30.17,0.2,SW,15.0,-,N/A,Fog,Light Freezing Fog,220,2012-11-19 18:15:00
11:35 AM,32.0,32.0,100,30.16,0.2,SW,16.1,25.3,N/A,Fog,Light Freezing Fog,230,2012-11-19 18:35:00
11:55 AM,32.0,32.0,100,30.15,0.8,WSW,18.4,28.8,N/A,,Overcast,240,2012-11-19 18:55:00
12:15 PM,32.0,32.0,100,30.13,0.2,SW,21.9,26.5,N/A,Fog,Fog,230,2012-11-19 19:15:00
12:35 PM,32.0,32.0,100,30.13,2.5,SW,26.5,33.4,N/A,,Mist,230,2012-11-19 19:35:00
12:55 PM,32.0,32.0,100,30.12,3.0,WSW,25.3,33.4,N/A,,Mist,240,2012-11-19 19:55:00
1:15 PM,32.0,32.0,100,30.11,2.5,WSW,29.9,34.5,N/A,,Mist,250,2012-11-19 20:15:00
1:35 PM,32.0,32.0,100,30.12,5.0,WSW,21.9,32.2,N/A,,Clear,240,2012-11-19 20:35:00
1:55 PM,33.8,32.0,93,30.12,10.0,WSW,17.3,28.8,N/A,,Clear,240,2012-11-19 20:55:00
2:15 PM,33.8,32.0,93,30.11,10.0,WSW,17.3,29.9,N/A,,Scattered Clouds,240,2012-11-19 21:15:00
2:35 PM,33.8,32.0,93,30.11,10.0,WSW,23.0,27.6,0.01,,Clear,250,2012-11-19 21:35:00
2:55 PM,33.8,32.0,93,30.10,7.0,West,21.9,33.4,0.01,,Clear,260,2012-11-19 21:55:00
3:15 PM,33.8,30.2,87,30.12,7.0,WSW,24.2,28.8,N/A,,Clear,250,2012-11-19 22:15:00
3:35 PM,33.8,30.2,87,30.15,10.0,WNW,12.7,19.6,N/A,,Clear,290,2012-11-19 22:35:00
3:55 PM,33.8,30.2,87,30.16,10.0,West,6.9,16.1,N/A,,Clear,260,2012-11-19 22:55:00
4:15 PM,33.8,30.2,87,30.14,10.0,WSW,19.6,-,N/A,,Clear,250,2012-11-19 23:15:00
4:35 PM,33.8,30.2,87,30.13,10.0,WSW,23.0,29.9,N/A,,Clear,250,2012-11-19 23:35:00
4:55 PM,33.8,30.2,87,30.15,10.0,WSW,10.4,26.5,N/A,,Clear,250,2012-11-19 23:55:00
5:15 PM,33.8,30.2,87,30.16,10.0,WSW,10.4,-,N/A,,Scattered Clouds,250,2012-11-20 00:15:00
5:35 PM,33.8,30.2,87,30.16,10.0,WSW,12.7,-,N/A,,Scattered Clouds,250,2012-11-20 00:35:00
5:55 PM,32.0,30.2,93,30.17,10.0,WSW,15.0,23.0,N/A,,Clear,250,2012-11-20 00:55:00
6:15 PM,32.0,30.2,93,30.16,10.0,WSW,16.1,20.7,N/A,,Clear,250,2012-11-20 01:15:00
6:35 PM,33.8,28.4,81,30.15,10.0,West,15.0,23.0,N/A,,Clear,260,2012-11-20 01:35:00
6:55 PM,32.0,28.4,87,30.14,10.0,WSW,15.0,21.9,N/A,,Clear,250,2012-11-20 01:55:00
7:15 PM,33.8,28.4,81,30.15,10.0,West,15.0,21.9,N/A,,Clear,260,2012-11-20 02:15:00
7:35 PM,33.8,28.4,81,30.14,10.0,West,12.7,19.6,N/A,,Clear,260,2012-11-20 02:35:00
7:55 PM,33.8,26.6,75,30.13,10.0,West,11.5,26.5,N/A,,Clear,280,2012-11-20 02:55:00
8:15 PM,33.8,24.8,70,30.13,10.0,WNW,8.1,21.9,N/A,,Clear,290,2012-11-20 03:15:00
8:35 PM,33.8,26.6,75,30.11,10.0,West,20.7,32.2,N/A,,Clear,270,2012-11-20 03:35:00
8:55 PM,33.8,26.6,75,30.10,10.0,West,31.1,41.4,N/A,,Clear,260,2012-11-20 03:55:00
9:15 PM,35.6,24.8,65,30.14,10.0,WSW,21.9,36.8,N/A,,Clear,250,2012-11-20 04:15:00
9:35 PM,35.6,24.8,65,30.17,10.0,SW,6.9,21.9,N/A,,Clear,230,2012-11-20 04:35:00
9:55 PM,33.8,24.8,70,30.16,10.0,West,8.1,-,N/A,,Clear,260,2012-11-20 04:55:00
10:15 PM,32.0,26.6,80,30.16,10.0,SSW,4.6,-,N/A,,Clear,210,2012-11-20 05:15:00
10:35 PM,32.0,26.6,80,30.15,10.0,WSW,6.9,-,N/A,,Clear,240,2012-11-20 05:35:00
10:55 PM,33.8,26.6,75,30.15,10.0,West,8.1,-,N/A,,Clear,270,2012-11-20 05:55:00
11:15 PM,33.8,26.6,75,30.15,10.0,West,10.4,23.0,N/A,,Clear,260,2012-11-20 06:15:00
11:35 PM,33.8,26.6,75,30.16,10.0,WSW,16.1,21.9,N/A,,Clear,250,2012-11-20 06:35:00
11:55 PM,33.8,26.6,75,30.15,10.0,WSW,18.4,26.5,N/A,,Clear,250,2012-11-20 06:55:00